HISTORICAL SENSOR DATA

Sensor Data Report

DB LIVE
CURRENT TIME--:--:--
DEVICE NETWORK Gateway Status
13 ESP · realtime ~1s · history 60s
Weather WS-MOD-01
ONLINE
Actuator ACT-MOD-01
OFFLINE
Mainboard L3 MB-L3-01
ONLINE
Mainboard L5 MB-L5-01
ONLINE
Remote AC AC-REMOTE-01
ONLINE
PZEM L3-01 PWR-L3-01
OFFLINE
PZEM L3-02 PWR-L3-02
OFFLINE
PZEM L3-03 PWR-L3-03
OFFLINE
PZEM L3-04 PWR-L3-04
OFFLINE
PZEM L5-01 PWR-L5-01
ONLINE
PZEM L5-02 PWR-L5-02
ONLINE
PZEM L5-03 PWR-L5-03
OFFLINE
PZEM L5-04 PWR-L5-04
OFFLINE
REPORT FILTER

Periode & Sensor

DATABASE HISTORY
RESET
QUICK RANGE Hari ini 7 hari 30 hari
PERIODE31 Aug 2026sampai 06 Sep 2026
TOTAL DATA64,112sensor readings
MINIMUM-0.50sesuai filter
AVERAGE87.75sesuai filter
MAXIMUM32,564.20sesuai filter
REPORT RESULT

Data Sensor

31/08/2026 — 06/09/2026 EXPORT CSV
NOTANGGALWAKTUDEVICECHANNELSENSORVALUEUNIT
3001 06/09/2026 22:20:00 MB-L3-01Mainboard Lantai 3 L3-AI-01 Analog Input 1 3.12 V
3002 06/09/2026 22:19:00 MB-L3-01Mainboard Lantai 3 L3-SHT-01-RH SHT20 1 Humidity 44.80 %RH
3003 06/09/2026 22:19:00 PWR-L5-01Power Meter L5 PZEM 01 PZEM-L5-01-FREQ PZEM L5-01 Frequency 50.00 Hz
3004 06/09/2026 22:19:00 MB-L5-01Mainboard Lantai 5 L5-RAD-01 Radiation 1 1.00 W/m²
3005 06/09/2026 22:19:00 MB-L5-01Mainboard Lantai 5 L5-BGT-03 Black Globe Temperature 3 26.90 °C
3006 06/09/2026 22:19:00 MB-L5-01Mainboard Lantai 5 L5-LUX-01 Illuminance / LUX 1 0.00 lux
3007 06/09/2026 22:19:00 WS-MOD-01Weather Station Module WS-RH Kelembapan Udara 73.10 %RH
3008 06/09/2026 22:19:00 MB-L3-01Mainboard Lantai 3 L3-LUX-06 Illuminance / LUX 6 0.30 lux
3009 06/09/2026 22:19:00 PWR-L5-01Power Meter L5 PZEM 01 PZEM-L5-01-PF PZEM L5-01 Power Factor 0.38
3010 06/09/2026 22:19:00 AC-REMOTE-01Remote AC AC-POWER AC Power State 1.00 state
3011 06/09/2026 22:19:00 MB-L3-01Mainboard Lantai 3 L3-AI-02 Analog Input 2 3.12 V
3012 06/09/2026 22:19:00 MB-L5-01Mainboard Lantai 5 L5-AI-03 Analog Input 3 3.05 V
3013 06/09/2026 22:19:00 MB-L5-01Mainboard Lantai 5 L5-AI-06 Analog Input 6 3.05 V
3014 06/09/2026 22:19:00 PWR-L5-02Power Meter L5 PZEM 02 PZEM-L5-02-POWER PZEM L5-02 Active Power 0.00 W
3015 06/09/2026 22:19:00 MB-L3-01Mainboard Lantai 3 L3-LUX-04 Illuminance / LUX 4 0.10 lux
3016 06/09/2026 22:19:00 MB-L5-01Mainboard Lantai 5 L5-HFT-02 Heat Flow Temperature 2 24.60 °C
3017 06/09/2026 22:19:00 MB-L3-01Mainboard Lantai 3 L3-SHT-02-T SHT20 2 Temperature 29.10 °C
3018 06/09/2026 22:19:00 MB-L3-01Mainboard Lantai 3 L3-AI-05 Analog Input 5 3.12 V
3019 06/09/2026 22:19:00 PWR-L5-02Power Meter L5 PZEM 02 PZEM-L5-02-PF PZEM L5-02 Power Factor 0.00
3020 06/09/2026 22:19:00 MB-L5-01Mainboard Lantai 5 L5-ST-01 Surface Temperature 1 25.10 °C
3021 06/09/2026 22:19:00 MB-L3-01Mainboard Lantai 3 L3-SHT-01-T SHT20 1 Temperature 29.10 °C
3022 06/09/2026 22:19:00 MB-L5-01Mainboard Lantai 5 L5-BGT-01 Black Globe Temperature 1 27.10 °C
3023 06/09/2026 22:19:00 MB-L5-01Mainboard Lantai 5 L5-LUX-06 Illuminance / LUX 6 0.10 lux
3024 06/09/2026 22:19:00 WS-MOD-01Weather Station Module WS-DIR Arah Angin 150.70 °
3025 06/09/2026 22:19:00 AC-REMOTE-01Remote AC AC-FAN AC Fan Speed 0.00 code
3026 06/09/2026 22:19:00 WS-MOD-01Weather Station Module WS-TEMP Suhu Udara 20.90 °C
3027 06/09/2026 22:19:00 MB-L3-01Mainboard Lantai 3 L3-LUX-05 Illuminance / LUX 5 0.30 lux
3028 06/09/2026 22:19:00 MB-L5-01Mainboard Lantai 5 L5-LUX-03 Illuminance / LUX 3 0.20 lux
3029 06/09/2026 22:19:00 MB-L3-01Mainboard Lantai 3 L3-SHT-03-RH SHT20 3 Humidity 44.60 %RH
3030 06/09/2026 22:19:00 MB-L5-01Mainboard Lantai 5 L5-AI-01 Analog Input 1 3.05 V
3031 06/09/2026 22:19:00 MB-L5-01Mainboard Lantai 5 L5-AI-04 Analog Input 4 3.05 V
3032 06/09/2026 22:19:00 MB-L3-01Mainboard Lantai 3 L3-RAD-01 Radiation 1 1.00 W/m²
3033 06/09/2026 22:19:00 MB-L3-01Mainboard Lantai 3 L3-AI-03 Analog Input 3 3.12 V
3034 06/09/2026 22:19:00 PWR-L5-02Power Meter L5 PZEM 02 PZEM-L5-02-CURR PZEM L5-02 Current 0.00 A
3035 06/09/2026 22:19:00 MB-L3-01Mainboard Lantai 3 L3-SHT-02-RH SHT20 2 Humidity 44.20 %RH
3036 06/09/2026 22:19:00 PWR-L5-01Power Meter L5 PZEM 01 PZEM-L5-01-VOLT PZEM L5-01 Voltage 225.70 V
3037 06/09/2026 22:19:00 MB-L5-01Mainboard Lantai 5 L5-ST-02 Surface Temperature 2 24.80 °C
3038 06/09/2026 22:19:00 PWR-L5-02Power Meter L5 PZEM 02 PZEM-L5-02-FREQ PZEM L5-02 Frequency 50.00 Hz
3039 06/09/2026 22:19:00 PWR-L5-01Power Meter L5 PZEM 01 PZEM-L5-01-CURR PZEM L5-01 Current 0.12 A
3040 06/09/2026 22:19:00 MB-L3-01Mainboard Lantai 3 L3-AI-06 Analog Input 6 3.12 V
3041 06/09/2026 22:19:00 AC-REMOTE-01Remote AC AC-MODE AC Operating Mode 1.00 code
3042 06/09/2026 22:19:00 MB-L3-01Mainboard Lantai 3 L3-LUX-01 Illuminance / LUX 1 0.20 lux
3043 06/09/2026 22:19:00 MB-L5-01Mainboard Lantai 5 L5-BGT-02 Black Globe Temperature 2 27.10 °C
3044 06/09/2026 22:19:00 MB-L5-01Mainboard Lantai 5 L5-LUX-04 Illuminance / LUX 4 0.10 lux
3045 06/09/2026 22:19:00 MB-L3-01Mainboard Lantai 3 L3-LUX-03 Illuminance / LUX 3 0.20 lux
3046 06/09/2026 22:19:00 WS-MOD-01Weather Station Module WS-WIND Kecepatan Angin 2.11 m/s
3047 06/09/2026 22:19:00 MB-L5-01Mainboard Lantai 5 L5-LUX-02 Illuminance / LUX 2 0.20 lux
3048 06/09/2026 22:19:00 PWR-L5-01Power Meter L5 PZEM 01 PZEM-L5-01-POWER PZEM L5-01 Active Power 10.60 W
3049 06/09/2026 22:19:00 MB-L3-01Mainboard Lantai 3 L3-AI-01 Analog Input 1 3.12 V
3050 06/09/2026 22:19:00 WS-MOD-01Weather Station Module WS-PRES Tekanan Udara 912.00 hPa
3051 06/09/2026 22:19:00 MB-L5-01Mainboard Lantai 5 L5-SHT-03-RH SHT20 3 Humidity 44.70 %RH
3052 06/09/2026 22:19:00 MB-L5-01Mainboard Lantai 5 L5-SHT-01-RH SHT20 1 Humidity 44.80 %RH
3053 06/09/2026 22:19:00 MB-L5-01Mainboard Lantai 5 L5-AI-02 Analog Input 2 3.05 V
3054 06/09/2026 22:19:00 MB-L5-01Mainboard Lantai 5 L5-AI-05 Analog Input 5 3.05 V
3055 06/09/2026 22:19:00 PWR-L5-02Power Meter L5 PZEM 02 PZEM-L5-02-VOLT PZEM L5-02 Voltage 225.50 V
3056 06/09/2026 22:19:00 MB-L5-01Mainboard Lantai 5 L5-SHT-03-T SHT20 3 Temperature 29.20 °C
3057 06/09/2026 22:19:00 MB-L5-01Mainboard Lantai 5 L5-SHT-02-T SHT20 2 Temperature 29.40 °C
3058 06/09/2026 22:19:00 MB-L5-01Mainboard Lantai 5 L5-HFT-01 Heat Flow Temperature 1 24.80 °C
3059 06/09/2026 22:19:00 AC-REMOTE-01Remote AC AC-SETPOINT AC Set Temperature 23.00 °C
3060 06/09/2026 22:19:00 PWR-L5-01Power Meter L5 PZEM 01 PZEM-L5-01-ENERGY PZEM L5-01 Energy 0.04 kWh
3061 06/09/2026 22:19:00 PWR-L5-02Power Meter L5 PZEM 02 PZEM-L5-02-ENERGY PZEM L5-02 Energy 0.04 kWh
3062 06/09/2026 22:19:00 MB-L3-01Mainboard Lantai 3 L3-AI-04 Analog Input 4 3.12 V
3063 06/09/2026 22:19:00 MB-L5-01Mainboard Lantai 5 L5-SHT-02-RH SHT20 2 Humidity 44.20 %RH
3064 06/09/2026 22:19:00 MB-L3-01Mainboard Lantai 3 L3-LUX-02 Illuminance / LUX 2 0.20 lux
3065 06/09/2026 22:19:00 MB-L3-01Mainboard Lantai 3 L3-RAD-02 Radiation 2 0.00 W/m²
3066 06/09/2026 22:19:00 MB-L5-01Mainboard Lantai 5 L5-RAD-02 Radiation 2 1.00 W/m²
3067 06/09/2026 22:19:00 MB-L5-01Mainboard Lantai 5 L5-SHT-01-T SHT20 1 Temperature 29.10 °C
3068 06/09/2026 22:19:00 MB-L3-01Mainboard Lantai 3 L3-SHT-03-T SHT20 3 Temperature 29.20 °C
3069 06/09/2026 22:18:00 MB-L5-01Mainboard Lantai 5 L5-HFT-02 Heat Flow Temperature 2 24.60 °C
3070 06/09/2026 22:18:00 MB-L3-01Mainboard Lantai 3 L3-SHT-02-T SHT20 2 Temperature 29.30 °C
3071 06/09/2026 22:18:00 MB-L3-01Mainboard Lantai 3 L3-AI-05 Analog Input 5 3.12 V
3072 06/09/2026 22:18:00 PWR-L5-02Power Meter L5 PZEM 02 PZEM-L5-02-PF PZEM L5-02 Power Factor 0.00
3073 06/09/2026 22:18:00 MB-L5-01Mainboard Lantai 5 L5-ST-01 Surface Temperature 1 25.20 °C
3074 06/09/2026 22:18:00 MB-L3-01Mainboard Lantai 3 L3-SHT-01-T SHT20 1 Temperature 29.00 °C
3075 06/09/2026 22:18:00 MB-L5-01Mainboard Lantai 5 L5-BGT-01 Black Globe Temperature 1 27.20 °C
3076 06/09/2026 22:18:00 MB-L5-01Mainboard Lantai 5 L5-LUX-06 Illuminance / LUX 6 0.10 lux
3077 06/09/2026 22:18:00 WS-MOD-01Weather Station Module WS-DIR Arah Angin 156.40 °
3078 06/09/2026 22:18:00 AC-REMOTE-01Remote AC AC-FAN AC Fan Speed 0.00 code
3079 06/09/2026 22:18:00 WS-MOD-01Weather Station Module WS-TEMP Suhu Udara 20.90 °C
3080 06/09/2026 22:18:00 MB-L3-01Mainboard Lantai 3 L3-LUX-05 Illuminance / LUX 5 0.30 lux
3081 06/09/2026 22:18:00 MB-L5-01Mainboard Lantai 5 L5-LUX-03 Illuminance / LUX 3 0.20 lux
3082 06/09/2026 22:18:00 MB-L3-01Mainboard Lantai 3 L3-SHT-03-RH SHT20 3 Humidity 44.50 %RH
3083 06/09/2026 22:18:00 MB-L5-01Mainboard Lantai 5 L5-AI-01 Analog Input 1 3.05 V
3084 06/09/2026 22:18:00 MB-L5-01Mainboard Lantai 5 L5-AI-04 Analog Input 4 3.05 V
3085 06/09/2026 22:18:00 MB-L3-01Mainboard Lantai 3 L3-RAD-01 Radiation 1 1.00 W/m²
3086 06/09/2026 22:18:00 MB-L3-01Mainboard Lantai 3 L3-AI-03 Analog Input 3 3.12 V
3087 06/09/2026 22:18:00 PWR-L5-02Power Meter L5 PZEM 02 PZEM-L5-02-CURR PZEM L5-02 Current 0.00 A
3088 06/09/2026 22:18:00 MB-L3-01Mainboard Lantai 3 L3-SHT-02-RH SHT20 2 Humidity 44.40 %RH
3089 06/09/2026 22:18:00 PWR-L5-01Power Meter L5 PZEM 01 PZEM-L5-01-VOLT PZEM L5-01 Voltage 225.50 V
3090 06/09/2026 22:18:00 MB-L5-01Mainboard Lantai 5 L5-ST-02 Surface Temperature 2 24.90 °C
3091 06/09/2026 22:18:00 PWR-L5-02Power Meter L5 PZEM 02 PZEM-L5-02-FREQ PZEM L5-02 Frequency 50.00 Hz
3092 06/09/2026 22:18:00 PWR-L5-01Power Meter L5 PZEM 01 PZEM-L5-01-CURR PZEM L5-01 Current 0.12 A
3093 06/09/2026 22:18:00 MB-L3-01Mainboard Lantai 3 L3-AI-06 Analog Input 6 3.12 V
3094 06/09/2026 22:18:00 AC-REMOTE-01Remote AC AC-MODE AC Operating Mode 1.00 code
3095 06/09/2026 22:18:00 MB-L3-01Mainboard Lantai 3 L3-LUX-01 Illuminance / LUX 1 0.20 lux
3096 06/09/2026 22:18:00 MB-L5-01Mainboard Lantai 5 L5-BGT-02 Black Globe Temperature 2 27.00 °C
3097 06/09/2026 22:18:00 MB-L5-01Mainboard Lantai 5 L5-LUX-04 Illuminance / LUX 4 0.10 lux
3098 06/09/2026 22:18:00 MB-L3-01Mainboard Lantai 3 L3-LUX-03 Illuminance / LUX 3 0.20 lux
3099 06/09/2026 22:18:00 WS-MOD-01Weather Station Module WS-WIND Kecepatan Angin 3.35 m/s
3100 06/09/2026 22:18:00 MB-L5-01Mainboard Lantai 5 L5-LUX-02 Illuminance / LUX 2 0.20 lux
Menampilkan maksimal 100 data per halaman